CST,Max TemperatureF,Mean TemperatureF,Min TemperatureF,Max Dew PointF,MeanDew PointF,Min DewpointF,Max Humidity, Mean Humidity, Min Humidity, Max Sea Level PressureIn, Mean Sea Level PressureIn, Min Sea Level PressureIn, Max VisibilityMiles, Mean VisibilityMiles, Min VisibilityMiles, Max Wind SpeedMPH, Mean Wind SpeedMPH, Max Gust SpeedMPH,PrecipitationIn, CloudCover, Events, WindDirDegrees
2012-11-1,73,58,43,48,41,31,90,58,27,30.09,30.03,29.98,10,10,10,15,5,22,0.00,1,,307
2012-11-2,80,62,43,61,50,41,93,69,39,30.11,30.06,30.00,10,10,4,15,4,20,0.00,0,,246
2012-11-3,85,70,55,63,59,55,100,83,41,30.16,30.10,30.06,10,5,0,9,3,,0.00,1,Fog,254
2012-11-4,82,69,55,62,57,54,100,78,43,30.12,30.07,30.00,10,7,0,14,5,,0.00,0,Fog,283
2012-11-5,73,58,42,52,41,31,93,58,22,30.11,30.03,29.92,10,10,9,20,4,24,0.02,3,Rain,19
2012-11-6,61,54,47,51,47,43,100,86,53,30.02,29.96,29.93,10,6,0,13,5,22,0.03,7,Fog,317
2012-11-7,64,54,43,46,41,32,90,67,31,30.12,30.02,29.94,10,10,10,15,9,24,0.00,4,,314
2012-11-8,66,52,37,41,37,35,93,67,33,30.25,30.20,30.12,10,10,8,10,4,,0.00,0,,333
2012-11-9,71,54,36,42,36,31,93,64,24,30.35,30.28,30.24,10,10,10,5,0,,0.00,0,,330
2012-11-10,73,56,38,44,38,32,89,60,24,30.38,30.33,30.29,10,10,10,7,2,,0.00,0,,134
2012-11-11,78,60,42,54,48,39,86,66,41,30.39,30.31,30.27,10,10,10,13,6,22,0.00,1,,119
2012-11-12,78,66,54,63,57,52,97,82,50,30.28,30.25,30.20,10,10,5,18,9,25,0.03,5,Rain,144
2012-11-13,65,54,43,52,37,27,94,62,24,30.35,30.28,30.23,10,10,9,15,10,16,T,3,,352
2012-11-14,58,51,44,52,46,32,94,82,63,30.30,30.27,30.24,10,9,3,10,6,,0.01,8,Rain,44
2012-11-15,53,50,47,47,45,43,93,84,72,30.30,30.26,30.23,10,9,4,10,6,,0.00,8,,30
2012-11-16,66,54,41,45,43,38,93,75,42,30.32,30.28,30.22,10,10,4,10,6,16,0.00,5,,51
2012-11-17,64,51,38,41,37,33,93,62,37,30.38,30.33,30.29,10,10,7,15,7,23,0.00,1,,37
2012-11-18,71,58,45,44,39,32,83,56,35,30.35,30.31,30.26,10,10,10,13,7,20,0.00,1,,35
2012-11-19,69,56,42,52,47,40,93,73,50,30.31,30.25,30.19,10,10,10,10,6,,0.00,2,,7
2012-11-20,69,60,51,54,52,50,96,77,51,30.22,30.16,30.11,10,10,5,9,3,,T,6,,340
2012-11-21,75,60,45,49,45,43,97,67,34,30.19,30.16,30.12,10,10,8,10,5,,0.00,1,,333
2012-11-22,74,59,43,45,42,41,90,64,31,30.28,30.22,30.18,10,10,8,7,2,,0.00,0,,317
2012-11-23,74,58,41,52,45,40,96,63,33,30.27,30.18,30.12,10,10,7,18,4,24,0.00,1,,294
2012-11-24,61,49,36,47,31,20,83,52,21,30.24,30.18,30.14,10,10,10,14,9,17,0.00,0,,333
2012-11-25,63,46,28,28,22,13,85,48,15,30.27,30.20,30.16,10,10,10,7,3,,0.00,0,,263
2012-11-26,69,50,30,47,38,27,88,63,36,30.29,30.22,30.18,10,10,10,8,1,,0.00,1,,177
2012-11-27,58,56,53,56,53,45,100,92,62,30.25,30.21,30.14,10,4,0,9,4,,0.87,8,Fog-Rain,77
2012-11-28,61,51,40,54,45,38,100,81,42,30.41,30.34,30.25,10,8,1,13,9,,0.00,4,,5
2012-11-29,63,51,38,49,43,36,100,82,58,30.45,30.38,30.33,10,7,2,7,3,,0.00,4,,51
2012-11-30,71,60,48,52,49,46,89,73,47,30.36,30.31,30.26,10,10,10,10,6,,0.00,6,,90